Home > Weather > Ravensburg > Past weeks

Flag for Germany Weather for the Past 2 Weeks in Ravensburg, Baden-Württemberg, Germany

Now
43 °F

Light rain. Partly cloudy.


Feels Like: 37 °F
Forecast: 37 / 43 °F
Wind: 9 mph from South

Location: Friedrichshafen Airport

Current Time: Feb 13, 2016 at 9:01:21 PM

Latest Report: Feb 13, 2016 at 8:20 PM


Visibility: N/A

Pressure: 29.24 "Hg

Humidity: 76%

Dew point: 36 °F

Location of RavensburgLocation

Historic Weather in Ravensburg — Graph

°F

Ravensburg Temperature Yesterday

Maximum temperature yesterday: 45 °F (at 1:20 PM)
Minimum temperature yesterday: 30 °F (at 12:20 AM)
Average temperature yesterday: 37 °F

High & Low Weather Summary for the Past Weeks

 TemperatureHumidityPressure
High55 °F (Feb 1, 1:50 PM)93% (Jan 29, 10:20 PM)30.42 "Hg (Jan 29, 10:20 PM)
Low30 °F (Feb 6, 12:20 AM)36% (Feb 11, 2:20 PM)29.21 "Hg (Feb 13, 3:50 PM)
Average41 °F74%29.94 "Hg
* Reported Jan 29 7:20 PM — Feb 13 7:50 PM, Ravensburg, Weather by CustomWeather, © 2016

Note: Actual official high and low records may vary slightly from our data, if they occured in-between our weather recording intervals... More about our weather records

Advertising

Ravensburg Weather History for the Previous 24 Hours

 ConditionsComfort  
Time TempWeatherWind HumidityBarometerVisibility
7:50 PM
Sat, Feb 13
41 °FMostly cloudy.6 mph87%29.24 "HgN/A
7:20 PM39 °FMostly cloudy.2 mph87%29.24 "HgN/A
6:50 PM41 °FLight rain. Overcast.6 mph81%29.24 "HgN/A
6:20 PM41 °FRain. Mostly cloudy.12 mph81%29.24 "HgN/A
5:50 PM45 °FRain. Overcast.12 mph71%29.24 "Hg5 mi
5:20 PM43 °FLight rain. Overcast.2 mph76%29.21 "HgN/A
4:50 PM45 °FPartly sunny.5 mph66%29.21 "HgN/A
4:20 PM45 °FScattered clouds.7 mph66%29.21 "HgN/A
3:50 PM45 °FScattered clouds.6 mph61%29.21 "HgN/A
3:20 PM45 °FBroken clouds.6 mph66%29.24 "HgN/A
2:50 PM43 °FLight rain. Broken clouds.6 mph71%29.24 "HgN/A
2:20 PM43 °FLight rain. Mostly cloudy.5 mph71%29.27 "HgN/A
1:50 PM43 °FMore clouds than sun.8 mph66%29.27 "HgN/A
1:20 PM45 °FOvercast.9 mph61%29.30 "HgN/A
12:50 PM45 °FPartly sunny.12 mph61%29.30 "HgN/A
12:20 PM45 °FBroken clouds.5 mph71%29.33 "HgN/A
11:50 AM43 °FPartly sunny.6 mph76%29.33 "HgN/A
11:20 AM41 °FBroken clouds.6 mph81%29.33 "HgN/A
10:50 AM41 °FBroken clouds.6 mph81%29.36 "HgN/A
10:20 AM41 °FBroken clouds.5 mph81%29.36 "HgN/A
9:50 AM39 °FBroken clouds.6 mph81%29.39 "HgN/A
9:20 AM37 °FMostly cloudy.6 mph87%29.39 "HgN/A
8:50 AM37 °FLight rain. Cloudy.5 mph87%29.39 "HgN/A
8:20 AM39 °FSprinkles. Overcast.6 mph81%29.39 "HgN/A
7:50 AM37 °FSprinkles. Overcast.5 mph87%29.39 "HgN/A
7:20 AM37 °FSprinkles. Mostly cloudy.2 mph87%29.39 "HgN/A
6:50 AM36 °FSprinkles. Mostly cloudy.5 mph87%29.39 "HgN/A
6:20 AM36 °FLight rain. Mostly cloudy.3 mph87%29.39 "Hg4 mi
5:50 AM36 °FLight rain. Mostly cloudy.5 mph87%29.39 "HgN/A
5:20 AM36 °FLight rain. Mostly cloudy.7 mph87%29.39 "Hg5 mi
4:50 AM36 °FLight rain. Mostly cloudy.9 mph87%29.39 "Hg6 mi
4:20 AM37 °FLight rain. Overcast.13 mph81%29.39 "Hg5 mi
3:50 AM37 °FLight rain. Fog.9 mph87%29.39 "Hg2 mi
3:20 AM36 °FLight rain. Fog.3 mph87%29.36 "Hg2 mi
2:50 AM36 °FLight rain. Fog.2 mph87%29.36 "Hg2 mi
2:20 AM36 °FLight rain. Mostly cloudy.2 mph87%29.36 "Hg5 mi
1:50 AM36 °FLight rain. Mostly cloudy.1 mph87%29.36 "Hg6 mi
1:20 AM36 °FSprinkles. Overcast.No wind87%29.36 "HgN/A
12:50 AM36 °FChilly.No wind87%29.33 "HgN/A
11:50 PM
Fri, Feb 12
36 °FMostly cloudy.2 mph87%29.36 "HgN/A
11:20 PM36 °FLight rain. Mostly cloudy.2 mph87%29.36 "HgN/A
10:20 PM36 °FMostly cloudy.2 mph87%29.36 "HgN/A
9:50 PM37 °FMostly cloudy.3 mph81%29.36 "HgN/A
9:20 PM37 °FSprinkles. Mostly cloudy.6 mph81%29.36 "HgN/A
Weather by CustomWeather, © 2016

See weather overviewHow to use our weather pages